Hourly Weather Alisovo

Today, 8 March, Monday

Time Temperature Precipitation Wind Pressure Humidity
00:00 -7°C° 0 mm 5 mps 733 mmHg 84%
01:00 -8°C° 0 mm 5 mps 733 mmHg 84%
02:00 -8°C° 0 mm 4 mps 733 mmHg 83%
03:00 -8°C° 0 mm 5 mps 732 mmHg 84%
04:00 -10°C° 0 mm 5 mps 732 mmHg 85%
05:00 -10°C° 0 mm 5 mps 732 mmHg 87%
06:00 -10°C° 0 mm 5 mps 732 mmHg 88%
07:00 -10°C° 0 mm 5 mps 733 mmHg 90%
08:00 -10°C° 0 mm 5 mps 733 mmHg 92%
09:00 -9°C° 0 mm 6 mps 733 mmHg 90%
10:00 -8°C° 0 mm 6 mps 734 mmHg 88%
11:00 -8°C° 0 mm 6 mps 734 mmHg 85%
12:00 -8°C° 0 mm 6 mps 734 mmHg 84%
13:00 -6°C° 0 mm 5 mps 735 mmHg 83%
14:00 -5°C° 0 mm 4 mps 735 mmHg 82%
15:00 -7°C° 0 mm 4 mps 735 mmHg 84%
16:00 -7°C° 0 mm 3 mps 735 mmHg 86%
17:00 -7°C° 0 mm 2 mps 736 mmHg 88%
18:00 -7°C° 0 mm 2 mps 736 mmHg 90%
19:00 -8°C° 0 mm 2 mps 737 mmHg 92%
20:00 -8°C° 0 mm 2 mps 737 mmHg 93%
21:00 -9°C° 0 mm 2 mps 737 mmHg 93%
22:00 -10°C° 0 mm 2 mps 737 mmHg 92%
23:00 -11°C° 0 mm 1 mps 737 mmHg 91%

Tomorrow, 9 March, Tuesday

Time Temperature Precipitation Wind Pressure Humidity
00:00 -13°C° 0 mm 2 mps 738 mmHg 91%
01:00 -13°C° 0 mm 2 mps 738 mmHg 91%
02:00 -14°C° 0 mm 2 mps 738 mmHg 91%
03:00 -14°C° 0 mm 2 mps 739 mmHg 92%
04:00 -14°C° 0 mm 2 mps 739 mmHg 93%
05:00 -14°C° 0 mm 2 mps 739 mmHg 94%
06:00 -13°C° 0 mm 2 mps 740 mmHg 94%
07:00 -14°C° 0 mm 3 mps 740 mmHg 94%
08:00 -14°C° 0 mm 3 mps 741 mmHg 94%
09:00 -15°C° 0 mm 4 mps 741 mmHg 92%
10:00 -14°C° 0 mm 4 mps 742 mmHg 91%
11:00 -14°C° 0 mm 4 mps 742 mmHg 89%
12:00 -14°C° 0 mm 4 mps 743 mmHg 88%
13:00 -14°C° 0 mm 4 mps 743 mmHg 86%
14:00 -14°C° 0 mm 4 mps 744 mmHg 85%
15:00 -13°C° 0 mm 3 mps 744 mmHg 87%
16:00 -14°C° 0 mm 3 mps 744 mmHg 89%
17:00 -14°C° 0 mm 2 mps 744 mmHg 90%
18:00 -15°C° 0 mm 2 mps 744 mmHg 91%
19:00 -15°C° 0 mm 2 mps 745 mmHg 92%
20:00 -16°C° 0 mm 2 mps 746 mmHg 93%
21:00 -17°C° 0 mm 2 mps 746 mmHg 93%
22:00 -17°C° 0 mm 2 mps 746 mmHg 94%
23:00 -18°C° 0 mm 2 mps 747 mmHg 94%

Day after tomorrow, 10 March, Wednesday

Time Temperature Precipitation Wind Pressure Humidity
00:00 -19°C° 0 mm 2 mps 747 mmHg 95%
01:00 -20°C° 0 mm 2 mps 747 mmHg 95%
02:00 -21°C° 0 mm 2 mps 748 mmHg 96%
03:00 -21°C° 0 mm 2 mps 748 mmHg 96%
04:00 -23°C° 0 mm 2 mps 748 mmHg 97%
05:00 -20°C° 0 mm 1 mps 748 mmHg 97%
06:00 -19°C° 0 mm 1 mps 749 mmHg 96%
07:00 -19°C° 0 mm 1 mps 749 mmHg 95%
08:00 -18°C° 0 mm 1 mps 749 mmHg 94%
09:00 -16°C° 0 mm 1 mps 750 mmHg 92%
10:00 -15°C° 0 mm 1 mps 750 mmHg 90%
11:00 -14°C° 0 mm 1 mps 750 mmHg 88%
12:00 -15°C° 0.1 mm 2 mps 750 mmHg 88%
13:00 -15°C° 0.1 mm 2 mps 750 mmHg 88%
14:00 -14°C° 0.1 mm 2 mps 750 mmHg 88%
15:00 -16°C° 0 mm 2 mps 750 mmHg 89%
16:00 -17°C° 0 mm 2 mps 750 mmHg 90%
17:00 -19°C° 0 mm 3 mps 750 mmHg 91%
18:00 -20°C° 0 mm 2 mps 751 mmHg 92%
19:00 -21°C° 0 mm 2 mps 751 mmHg 93%
20:00 -24°C° 0 mm 2 mps 751 mmHg 93%
21:00 -25°C° 0 mm 2 mps 752 mmHg 92%
22:00 -25°C° 0 mm 2 mps 752 mmHg 91%
23:00 -26°C° 0 mm 2 mps 752 mmHg 90%

11 March, Thursday

Time Temperature Precipitation Wind Pressure Humidity
00:00 -26°C° 0 mm 2 mps 753 mmHg 89%
01:00 -23°C° 0 mm 1 mps 753 mmHg 88%
02:00 -24°C° 0 mm 1 mps 753 mmHg 87%
03:00 -24°C° 0 mm 1 mps 753 mmHg 86%
04:00 -24°C° 0 mm 1 mps 753 mmHg 85%
05:00 -24°C° 0 mm 1 mps 753 mmHg 85%
06:00 -23°C° 0 mm 1 mps 754 mmHg 84%
07:00 -22°C° 0 mm 1 mps 754 mmHg 84%
08:00 -20°C° 0 mm 1 mps 754 mmHg 84%
09:00 -19°C° 0 mm 1 mps 754 mmHg 80%
10:00 -17°C° 0 mm 0 mps 754 mmHg 77%
11:00 -16°C° 0 mm 0 mps 755 mmHg 74%
12:00 -15°C° 0 mm 0 mps 754 mmHg 74%
13:00 -14°C° 0 mm 0 mps 754 mmHg 74%
14:00 -13°C° 0 mm 1 mps 754 mmHg 74%
15:00 -15°C° 0 mm 1 mps 754 mmHg 77%
16:00 -16°C° 0 mm 1 mps 754 mmHg 80%
17:00 -17°C° 0 mm 1 mps 753 mmHg 84%
18:00 -18°C° 0 mm 1 mps 753 mmHg 83%
19:00 -21°C° 0 mm 2 mps 753 mmHg 82%
20:00 -21°C° 0 mm 2 mps 753 mmHg 81%
21:00 -21°C° 0 mm 2 mps 753 mmHg 80%
22:00 -24°C° 0 mm 3 mps 753 mmHg 79%
23:00 -24°C° 0 mm 3 mps 753 mmHg 78%

12 March, Friday

Time Temperature Precipitation Wind Pressure Humidity
00:00 -24°C° 0 mm 3 mps 753 mmHg 79%
01:00 -24°C° 0 mm 3 mps 753 mmHg 79%
02:00 -25°C° 0 mm 4 mps 752 mmHg 80%
03:00 -24°C° 0 mm 4 mps 752 mmHg 82%
04:00 -23°C° 0 mm 4 mps 752 mmHg 83%
05:00 -24°C° 0 mm 5 mps 751 mmHg 84%
06:00 -21°C° 0 mm 5 mps 751 mmHg 83%
07:00 -21°C° 0 mm 6 mps 751 mmHg 81%
08:00 -18°C° 0 mm 6 mps 750 mmHg 79%
09:00 -17°C° 0 mm 7 mps 750 mmHg 79%
10:00 -15°C° 0 mm 7 mps 750 mmHg 79%
11:00 -13°C° 0 mm 8 mps 749 mmHg 80%
12:00 -13°C° 0 mm 8 mps 749 mmHg 79%
13:00 -12°C° 0 mm 9 mps 748 mmHg 77%
14:00 -11°C° 0 mm 9 mps 748 mmHg 76%
15:00 -11°C° 0 mm 9 mps 747 mmHg 78%
16:00 -11°C° 0 mm 9 mps 746 mmHg 80%
17:00 -11°C° 0 mm 9 mps 746 mmHg 83%
18:00 -12°C° 0.2 mm 10 mps 745 mmHg 85%
19:00 -12°C° 0.2 mm 10 mps 745 mmHg 87%
20:00 -12°C° 0.2 mm 10 mps 745 mmHg 90%
21:00 -12°C° 0.4 mm 10 mps 745 mmHg 91%
22:00 -10°C° 0.4 mm 10 mps 744 mmHg 92%
23:00 -10°C° 0.4 mm 10 mps 744 mmHg 93%

13 March, Saturday

Time Temperature Precipitation Wind Pressure Humidity
00:00 -10°C° 0.4 mm 10 mps 744 mmHg 93%
01:00 -10°C° 0.4 mm 9 mps 743 mmHg 92%
02:00 -9°C° 0.4 mm 9 mps 743 mmHg 92%
03:00 -8°C° 0.1 mm 8 mps 743 mmHg 92%
04:00 -8°C° 0.1 mm 8 mps 743 mmHg 92%
05:00 -8°C° 0.1 mm 7 mps 743 mmHg 92%
06:00 -8°C° 0.1 mm 7 mps 743 mmHg 93%
07:00 -7°C° 0.1 mm 7 mps 743 mmHg 93%
08:00 -7°C° 0.1 mm 7 mps 744 mmHg 94%
09:00 -6°C° 0.1 mm 7 mps 744 mmHg 94%
10:00 -4°C° 0.1 mm 6 mps 744 mmHg 95%
11:00 -3°C° 0.1 mm 6 mps 744 mmHg 96%
12:00 -3°C° 0.2 mm 6 mps 745 mmHg 97%
13:00 -2°C° 0.2 mm 5 mps 745 mmHg 98%
14:00 -2°C° 0.2 mm 5 mps 745 mmHg 99%
15:00 -2°C° 0.1 mm 5 mps 744 mmHg 98%
16:00 -2°C° 0.1 mm 5 mps 744 mmHg 97%
17:00 -2°C° 0.1 mm 5 mps 744 mmHg 96%
18:00 -1°C° 0 mm 5 mps 744 mmHg 96%
19:00 -1°C° 0 mm 5 mps 745 mmHg 96%
20:00 -1°C° 0 mm 4 mps 745 mmHg 96%
21:00 -1°C° 0 mm 5 mps 745 mmHg 96%
22:00 -1°C° 0 mm 5 mps 744 mmHg 97%
23:00 -2°C° 0 mm 6 mps 744 mmHg 97%
Show more